Oroville, CA

10:04 PM PDT on March 26, 2017 (GMT -0700)
Oroville Municipal

Weather History for KOVE - October, 2012

Change the Weather History Date:

Saturday, October 20, 2012

  Actual Average Record
Temperature  
Mean Temperature 66 °F -  
Max Temperature 77 °F 78 °F 94 °F (1991)
Min Temperature 55 °F 49 °F 41 °F (1953)
Cooling Degree Days 1    
Growing Degree Days 16 (Base 50)    
Moisture  
Dew Point 52 °F    
Average Humidity 66    
Maximum Humidity 93    
Minimum Humidity 39    
Precipitation  
Precipitation 0.00 in - - ()
Sea Level Pressure  
Sea Level Pressure 29.83 in    
Wind  
Wind Speed 4 mph (SE)    
Max Wind Speed 8 mph    
Max Gust Speed -    
Visibility 10 miles    
Events      
Averages and records for this station are not official NWS values.
T = Trace of Precipitation, MM = Missing Value Source: NWS Daily Summary

Daily Weather History Graph

Daily Weather History Graph

Search for Another Location

Airport or City:

Trip Planner

Search our weather history database for the weather conditions in past years. The results will help you decide how hot, cold, wet, or windy it might be!

Date:

Astronomy

Oct. 20, 2012 Rise Set
Actual Time 7:22 AM PDT 6:19 PM PDT
Civil Twilight 6:54 AM PDT 6:46 PM PDT
Nautical Twilight 6:23 AM PDT 7:17 PM PDT
Astronomical Twilight 5:52 AM PDT 7:49 PM PDT
Moon 1:01 PM PDT (10/20) 11:12 PM PDT (10/20)
Length of Visible Light 11h 51m
Length of Day
10h 57m
Waxing Crescent, 35% of the Moon is Illuminated
Oct 20
Waxing Crescent
Oct 21
First Quarter
Oct 29
Full
Nov 6
Last Quarter
Nov 13
New

Hourly Weather History & Observations

Time (PDT) Temp. Dew Point Humidity Pressure Visibility Wind Dir Wind Speed Gust Speed Precip Events Conditions
12:53 AM 66.0 °F 52.0 °F 60% 29.88 in 10.0 mi East 5.8 mph - N/A   Clear
1:53 AM 66.0 °F 53.1 °F 63% 29.87 in 10.0 mi Calm Calm - N/A   Clear
2:53 AM 63.0 °F 53.1 °F 70% 29.88 in 10.0 mi South 8.1 mph - N/A   Clear
3:53 AM 59.0 °F 54.0 °F 83% 29.87 in 10.0 mi Calm Calm - N/A   Clear
4:53 AM 57.9 °F 54.0 °F 87% 29.88 in 10.0 mi Calm Calm - N/A   Clear
5:53 AM 55.9 °F 53.1 °F 90% 29.87 in 10.0 mi ESE 6.9 mph - N/A   Clear
6:53 AM 55.0 °F 52.0 °F 89% 29.87 in 10.0 mi Calm Calm - N/A   Clear
7:53 AM 55.0 °F 53.1 °F 93% 29.88 in 10.0 mi SE 4.6 mph - N/A   Clear
8:53 AM 59.0 °F 55.0 °F 87% 29.89 in 10.0 mi Calm Calm - N/A   Clear
9:53 AM 63.0 °F 55.0 °F 75% 29.88 in 10.0 mi Variable 3.5 mph - N/A   Clear
10:53 AM 66.0 °F 55.0 °F 68% 29.87 in 10.0 mi Variable 3.5 mph - N/A   Clear
11:53 AM 69.1 °F 54.0 °F 58% 29.86 in 10.0 mi WNW 4.6 mph - N/A   Clear
12:53 PM 71.1 °F 53.1 °F 53% 29.84 in 10.0 mi Variable 3.5 mph - N/A   Clear
1:53 PM 73.9 °F 52.0 °F 46% 29.81 in 10.0 mi WNW 5.8 mph - N/A   Clear
2:53 PM 75.0 °F 51.1 °F 43% 29.78 in 10.0 mi Variable 3.5 mph - N/A   Clear
3:53 PM 77.0 °F 50.0 °F 39% 29.77 in 10.0 mi South 5.8 mph - N/A   Clear
4:53 PM 75.9 °F 50.0 °F 40% 29.76 in 5.0 mi South 3.5 mph - N/A   Haze
5:53 PM 73.0 °F 50.0 °F 44% 29.75 in 10.0 mi South 5.8 mph - N/A   Clear
6:53 PM 68.0 °F 51.1 °F 55% 29.75 in 10.0 mi SSE 4.6 mph - N/A   Clear
7:53 PM 66.0 °F 51.1 °F 59% 29.77 in 10.0 mi East 3.5 mph - N/A   Clear
8:53 PM 64.0 °F 51.1 °F 63% 29.78 in 10.0 mi ENE 5.8 mph - N/A   Clear
9:53 PM 63.0 °F 51.1 °F 65% 29.78 in 10.0 mi ESE 5.8 mph - N/A   Clear
10:53 PM 63.0 °F 52.0 °F 67% 29.79 in 10.0 mi East 5.8 mph - N/A   Clear
11:53 PM 60.1 °F 52.0 °F 75% 29.81 in 10.0 mi NW 3.5 mph - N/A   Scattered Clouds